"Pseudo-MPEC" for ZLB15BE

Created 2018 Jun 14 15:18:19 UT using Find_Orb

Click here for an explanation of pseudo-MPECs

 
 Astrometry: 
     ZLB15BE  C2018 01 14GaAstrometry'G$+p\)(+EvM.yT_VY7llh_nRY:Ata\!c:aYvj;[F51
     ZLB15BE  C2018 01 14ik.wE=]!vNGB`jn?^imKoc?0vkQC\`@'WW]-+^*!EtJdY9XY?'B8F51
     ZLB15BE  C2018 01 14kr.Ec`hyb[W@%H[!Credacted;+fVxxi=%e0J]oF$]y$yZ5?R.yUF51
     ZLB15BE  C2018 06 11.18509 11 33 01.84 +13 29 11.9          21.5 GUNEOCPG96
     ZLB15BE  C2018 06 11.19663 11 33 03.06 +13 28 55.6          21.5 GUNEOCPG96
     ZLB15BE  C2018 06 11.20240 11 33 03.72 +13 28 46.5          21.2 GUNEOCPG96
     ZLB15BE  C2018 06 11VZVS?vc=tR5S=E#cLh/F/46(gD[vTo,bsee4)KRW$AeAfBvOoPqXV06
     ZLB15BE  C2018 06 11PrA?.$,,_(`/4HCqNOORpnM66#@_T7^c9#K=cWWkrftcQHmTcN\eV06
     ZLB15BE  C2018 06 11_@$m1B,O6cSM2d^*xXnP'a05$_qX$1R(X%dm;NGH!33sq=rNEOCPV06

Station data:
(F51) Pan-STARRS 1, Haleakala  (N20.707235 W156.255910)  US/Hawaii.
   Observers N. Primak, A. Schultz, S. Watters, J. Thiel, T. Goggia. Measurer
   PS1 Science Consortium. 1.8-m Ritchey-Chrétien + CCD.
(G96) Mt. Lemmon Survey  (N32.442754 W110.788720)  US/Arizona.  Observers B.
   M. Africano, E. J. Christensen, D. C. Fuls, A. R. Gibbs, A. D. Grauer, J.
   A. Johnson, R. A. Kowalski, S. M. Larson, G. J. Leonard, R. G. Matheny, R.
   L. Seaman, F. C. Shelly. 1.5-m reflector + 10K CCD.
(V06) Catalina Sky Survey-Kuiper  (N32.416847 W110.732550)  US/Arizona.
   Observers B. M. Africano, E. J. Christensen, D. C. Fuls, A. R. Gibbs, A.
   D. Grauer, J. A. Johnson, R. A. Kowalski, S. M. Larson, G. J. Leonard, R.
   G. Matheny, R. L. Seaman, F. C. Shelly. 1.55-m reflector + CCD.

Orbital elements:  ZLB15BE
   Perihelion 2018 Jul 21.317063 +/- 0.746 TT =  7:36:34 (JD 2458320.817063)
Epoch 2018 Jun 11.0 TT = JDT 2458280.5   Earth MOID: 0.4439   Ma: 0.0207
M 351.15380 +/- 1.1                 (J2000 ecliptic)          AutoNEOCP
n   0.21941564 +/- 0.0251           Peri.  169.16828 +/- 0.22
a   2.72243582 +/- 0.208            Node    68.17709 +/- 0.54
e   0.4658490 +/- 0.039             Incl.   12.08503 +/- 0.12
P   4.49                   H 19.0   G  0.15   U 10.3  
q 1.45419174 +/- 0.00883    Q 3.99067990 +/- 0.413
From 9 observations 2018 Jan. 14-June 11; mean residual 0".33
Residuals in arcseconds: 
180114 F51  .09-  .01+    180611 G96  .13-  .29+    180611 V06  .22-  .07+    
180114 F51  .10-  .24-    180611 G96  .11+  .46+    180611 V06  .18-  .29-    
180114 F51  .18+  .23+    180611 G96  .96+  .40-    180611 V06  .45-  .13-    

Ephemerides (geocentric):
Date (UTC) HH   RA              Dec         delta   r     elong  mag " sig PA
---- -- -- --  -------------   -----------  ------ ------ -----  --- ---- ---
2018 06 14 15  11 39 15.082   +12 07 00.81  1.1508 1.4970  87.2 21.8 40.1  70
2018 06 14 16  11 39 19.687   +12 06 00.49  1.1509 1.4969  87.2 21.8 40.3  70
2018 06 14 17  11 39 24.294   +12 05 00.16  1.1511 1.4968  87.1 21.8 40.4  70
2018 06 14 18  11 39 28.903   +12 03 59.82  1.1513 1.4967  87.1 21.8 40.5  69
2018 06 14 19  11 39 33.515   +12 02 59.47  1.1514 1.4966  87.1 21.8 40.6  69
2018 06 14 20  11 39 38.128   +12 01 59.10  1.1516 1.4965  87.1 21.8 40.8  69
2018 06 14 21  11 39 42.744   +12 00 58.72  1.1517 1.4964  87.1 21.8 40.9  69
2018 06 14 22  11 39 47.361   +11 59 58.32  1.1519 1.4963  87.1 21.8 41.1  68
2018 06 14 23  11 39 51.981   +11 58 57.92  1.1520 1.4962  87.1 21.8 41.2  68
2018 06 15 00  11 39 56.602   +11 57 57.50  1.1522 1.4961  87.0 21.8 41.3  68
2018 06 15 01  11 40 01.226   +11 56 57.07  1.1523 1.4961  87.0 21.8 41.5  67
2018 06 15 02  11 40 05.852   +11 55 56.62  1.1525 1.4960  87.0 21.8 41.6  67
2018 06 15 03  11 40 10.479   +11 54 56.17  1.1526 1.4959  87.0 21.8 41.7  67
2018 06 15 04  11 40 15.109   +11 53 55.70  1.1528 1.4958  87.0 21.8 41.9  66
2018 06 15 05  11 40 19.741   +11 52 55.21  1.1530 1.4957  87.0 21.8 42.0  66
2018 06 15 06  11 40 24.375   +11 51 54.72  1.1531 1.4956  86.9 21.8 42.1  66
2018 06 15 07  11 40 29.011   +11 50 54.21  1.1533 1.4955  86.9 21.8 42.3  66
2018 06 15 08  11 40 33.649   +11 49 53.69  1.1534 1.4954  86.9 21.8 42.4  65
2018 06 15 09  11 40 38.289   +11 48 53.16  1.1536 1.4953  86.9 21.8 42.6  65
2018 06 15 10  11 40 42.931   +11 47 52.61  1.1537 1.4952  86.9 21.8 42.7  65
2018 06 15 11  11 40 47.575   +11 46 52.05  1.1539 1.4951  86.9 21.8 42.9  64
2018 06 15 12  11 40 52.221   +11 45 51.48  1.1540 1.4950  86.9 21.8 43.0  64
2018 06 15 13  11 40 56.870   +11 44 50.90  1.1542 1.4949  86.8 21.8 43.1  64
2018 06 15 14  11 41 01.520   +11 43 50.30  1.1543 1.4948  86.8 21.8 43.3  63
2018 06 15 15  11 41 06.172   +11 42 49.69  1.1545 1.4947  86.8 21.8 43.4  63
2018 06 15 16  11 41 10.827   +11 41 49.07  1.1547 1.4947  86.8 21.8 43.6  63
2018 06 15 17  11 41 15.483   +11 40 48.44  1.1548 1.4946  86.8 21.8 43.7  63
2018 06 15 18  11 41 20.141   +11 39 47.79  1.1550 1.4945  86.8 21.8 43.9  62
2018 06 15 19  11 41 24.802   +11 38 47.13  1.1551 1.4944  86.8 21.8 44.0  62
2018 06 15 20  11 41 29.464   +11 37 46.46  1.1553 1.4943  86.7 21.8 44.2  62
2018 06 15 21  11 41 34.129   +11 36 45.77  1.1554 1.4942  86.7 21.8 44.3  61
2018 06 15 22  11 41 38.795   +11 35 45.08  1.1556 1.4941  86.7 21.8 44.5  61
2018 06 15 23  11 41 43.463   +11 34 44.37  1.1557 1.4940  86.7 21.8 44.6  61
2018 06 16 00  11 41 48.134   +11 33 43.65  1.1559 1.4939  86.7 21.8 44.8  61
2018 06 16 01  11 41 52.807   +11 32 42.91  1.1560 1.4938  86.7 21.8 44.9  60
2018 06 16 02  11 41 57.481   +11 31 42.17  1.1562 1.4937  86.6 21.8 45.1  60
2018 06 16 03  11 42 02.158   +11 30 41.41  1.1564 1.4936  86.6 21.8 45.2  60
2018 06 16 04  11 42 06.836   +11 29 40.64  1.1565 1.4936  86.6 21.8 45.4  59
2018 06 16 05  11 42 11.517   +11 28 39.86  1.1567 1.4935  86.6 21.8 45.5  59
2018 06 16 06  11 42 16.200   +11 27 39.06  1.1568 1.4934  86.6 21.8 45.7  59
2018 06 16 07  11 42 20.884   +11 26 38.25  1.1570 1.4933  86.6 21.8 45.9  59
2018 06 16 08  11 42 25.571   +11 25 37.43  1.1571 1.4932  86.6 21.8 46.0  58
2018 06 16 09  11 42 30.259   +11 24 36.60  1.1573 1.4931  86.5 21.8 46.2  58
2018 06 16 10  11 42 34.950   +11 23 35.76  1.1574 1.4930  86.5 21.8 46.3  58
2018 06 16 11  11 42 39.643   +11 22 34.90  1.1576 1.4929  86.5 21.8 46.5  57
2018 06 16 12  11 42 44.337   +11 21 34.03  1.1578 1.4928  86.5 21.8 46.7  57
2018 06 16 13  11 42 49.034   +11 20 33.15  1.1579 1.4927  86.5 21.8 46.8  57
2018 06 16 14  11 42 53.733   +11 19 32.25  1.1581 1.4926  86.5 21.8 47.0  57